GFSSW_850_rhum_132.txt.gz
RH
28 23 20 18 14 12 10 7 5 4 4 5 6 7 8 9 9 11 15 13 15 18 16 15 13 13 11 25 30 29 41 50 43 33 27 18 18 16 14 14 12 10 10 16 25
28 21 17 14 14 10 6 4 4 5 6 8 8 9 9 9 11 19 18 20 22 22 17 6 10 17 11 20 22 30 45 39 28 24 24 20 19 18 16 14 13 12 11 17 24
27 18 14 12 9 5 4 5 7 8 8 8 9 9 8 8 10 23 14 12 10 8 8 6 15 27 25 16 16 23 31 27 24 21 20 20 20 18 16 16 14 14 19 24 30
24 17 14 10 6 5 6 7 8 8 8 7 6 5 4 5 18 19 14 12 12 10 12 16 22 27 25 25 18 25 20 21 19 18 19 20 18 18 17 16 15 14 14 15 22
21 16 11 7 6 6 7 7 8 7 5 3 2 2 3 8 10 22 19 18 17 13 10 12 16 20 27 26 23 25 22 20 18 17 17 17 19 19 16 16 14 14 14 14 14
20 14 10 7 7 7 7 7 6 4 2 2 3 4 5 29 16 22 22 20 20 19 20 19 15 14 12 17 22 21 21 21 19 19 18 20 19 17 16 15 15 14 13 14 14
18 13 10 8 8 7 7 6 4 2 3 4 8 9 12 3 19 19 20 19 18 17 16 21 22 21 20 21 14 13 20 19 18 18 21 18 23 22 17 15 15 15 14 14 14
18 13 10 8 7 7 6 4 2 2 10 12 18 37 15 22 20 23 19 15 15 15 16 15 16 14 22 20 16 14 18 28 19 19 17 20 26 20 15 15 15 14 14 14 14
16 11 10 8 7 6 4 2 2 8 32 33 62 69 47 25 18 14 15 16 16 17 16 15 13 13 25 28 22 20 24 24 20 17 19 20 23 19 16 14 16 15 15 14 12
16 11 10 8 6 4 3 2 5 17 26 42 53 65 26 17 15 19 10 9 10 13 16 15 16 32 31 27 30 24 29 28 27 19 17 21 21 17 16 15 16 16 15 14 13
16 13 9 6 4 3 2 13 28 44 38 41 33 38 20 14 17 11 9 8 6 12 20 17 26 35 35 28 20 18 20 22 18 16 19 19 18 16 14 18 16 15 14 13 12
16 13 7 5 4 8 13 24 31 39 36 21 22 22 14 14 10 11 10 8 8 12 12 17 25 22 20 27 28 22 21 22 18 17 21 21 20 15 14 20 14 12 14 13 13
17 9 6 5 10 33 30 16 15 20 46 28 21 20 18 10 10 7 7 8 8 9 12 15 14 11 9 12 14 16 25 27 27 22 22 21 23 19 15 17 15 13 12 13 13
18 8 6 4 14 46 52 41 20 13 73 40 24 22 19 9 10 9 8 8 12 12 14 15 11 10 12 12 13 16 15 17 19 22 28 19 35 23 22 21 19 16 13 13 13
12 8 6 6 50 49 47 44 12 54 38 30 21 18 11 11 9 10 12 12 15 18 16 21 16 14 14 11 12 22 26 25 25 24 32 26 43 28 22 26 23 20 14 13 13
10 8 6 12 48 50 44 9 36 48 41 22 13 14 12 12 11 12 13 12 14 18 16 18 12 10 11 17 19 23 35 38 35 32 44 31 33 38 25 26 23 18 16 16 14
10 7 9 40 44 31 32 56 57 63 21 20 19 17 18 16 15 16 18 21 24 28 26 20 17 15 16 22 21 22 52 82 70 52 41 25 33 30 26 26 24 24 19 18 16
10 8 46 52 49 56 37 61 58 40 24 17 19 17 20 19 19 20 23 30 22 22 28 32 31 24 20 24 28 30 55 83 97 73 83 60 58 34 36 59 64 62 25 18 22
9 12 29 29 28 32 60 66 46 28 21 22 22 22 26 26 23 30 30 29 25 34 40 46 37 27 24 24 26 36 42 42 72 62 77 60 52 35 71 79 74 60 45 29 43
16 36 38 39 15 59 78 47 32 24 21 22 29 30 40 37 36 34 31 39 43 47 37 36 49 29 26 24 24 32 34 67 80 86 80 84 86 94 78 92 88 81 78 64 49
76 72 60 26 40 78 89 33 29 24 23 31 37 36 38 37 35 35 31 46 46 47 45 45 47 44 35 36 51 58 56 62 70 88 80 74 80 82 89 90 95 89 79 77 58
74 88 52 43 83 85 48 37 20 27 27 31 33 32 34 35 39 46 45 46 42 48 57 51 64 72 53 41 49 50 63 93 98 92 96 92 85 67 78 77 82 98 99 82 73
57 34 43 78 86 78 36 34 30 28 29 28 31 29 28 45 50 46 45 40 42 47 54 60 74 92 50 41 42 47 45 49 72 95 85 95 64 55 67 80 96 95 88 83 75
56 82 55 59 47 52 54 47 40 30 28 23 27 38 45 48 49 55 60 46 40 42 47 62 76 74 79 76 66 72 48 44 48 78 61 59 65 58 78 91 95 87 83 81 71
85 78 52 82 61 54 47 41 50 48 32 31 48 52 56 59 63 60 52 55 47 44 59 62 90 73 71 64 58 59 57 45 44 43 61 41 50 67 73 75 83 84 90 80 81
62 60 53 53 44 52 55 50 45 41 48 51 53 48 53 65 70 72 60 60 67 56 62 75 93 89 85 59 50 50 80 79 86 88 64 65 86 68 68 68 79 87 84 83 82
58 56 38 55 57 58 58 49 55 53 43 41 49 56 61 53 45 43 47 52 57 64 83 96 92 83 77 56 61 76 90 86 94 94 94 87 90 76 77 83 92 94 96 95 91

GFSSW_850_rhum_135.txt.gz
RH
49 41 32 24 22 18 16 13 7 5 6 7 8 9 9 10 12 14 16 20 18 21 18 16 14 14 14 20 33 34 50 66 50 42 36 24 23 20 18 18 17 16 14 22 29
53 44 29 23 19 18 13 7 6 6 8 9 10 10 10 10 12 16 16 21 17 21 21 8 6 19 14 15 20 32 55 48 36 31 29 25 24 22 20 20 19 16 15 28 35
58 49 34 22 18 14 8 6 8 8 9 10 10 10 8 7 10 23 14 12 11 8 12 12 11 27 27 16 18 27 39 33 28 25 23 23 21 20 21 23 18 17 16 15 33
65 54 39 27 19 10 7 8 8 9 10 9 7 5 3 3 15 19 14 18 16 12 10 15 22 27 29 27 21 22 21 20 20 16 19 23 19 20 20 19 16 16 15 15 14
69 58 40 22 15 10 9 9 9 9 7 5 2 2 2 4 6 18 20 19 19 17 16 16 13 18 26 26 23 27 25 22 20 20 20 19 22 22 20 18 16 15 15 15 14
72 57 35 19 12 9 9 10 9 7 4 2 2 3 7 16 6 21 22 22 20 21 20 20 19 18 16 17 18 19 16 16 16 17 17 21 21 20 19 17 17 16 15 15 15
75 51 27 14 10 9 9 10 9 6 2 3 4 7 11 2 18 21 20 20 20 19 18 16 20 20 20 24 18 16 18 17 18 17 21 19 22 25 17 16 17 16 15 14 15
69 42 22 13 10 8 8 8 6 3 2 12 21 28 18 25 21 23 21 15 16 16 16 17 16 15 17 21 24 20 18 25 20 18 16 19 24 20 16 16 17 16 16 15 14
64 44 24 13 10 8 7 5 3 2 7 31 50 58 33 27 18 15 16 13 10 12 15 17 17 14 22 29 28 22 28 23 20 17 19 22 26 19 15 14 16 15 15 16 15
82 38 17 12 9 8 5 3 13 14 20 24 48 46 24 19 15 15 8 9 10 15 16 16 17 29 32 31 41 27 26 26 28 20 17 21 20 15 14 14 15 15 13 13 14
76 30 15 13 8 6 4 15 31 36 34 28 37 40 21 14 13 11 9 8 7 7 14 18 26 30 28 32 29 24 24 26 22 17 19 21 20 18 15 16 18 14 13 12 12
69 27 17 11 7 5 10 29 28 30 26 33 32 33 17 19 12 8 9 8 8 10 12 16 15 18 13 12 18 34 35 32 25 20 22 25 24 20 18 18 15 14 13 12 11
58 32 17 9 6 8 22 18 16 14 26 18 18 21 18 16 10 8 8 8 8 10 12 15 14 13 12 15 13 13 24 25 28 18 20 25 26 23 18 16 15 14 14 14 14
66 31 17 8 8 28 30 30 16 19 43 34 29 22 22 11 10 10 8 8 12 13 15 17 13 17 17 15 15 17 25 34 29 31 36 19 27 18 19 24 21 19 16 15 14
66 45 13 7 37 42 37 39 15 52 14 32 25 19 11 10 10 13 12 12 16 16 17 21 18 17 15 20 22 28 28 40 40 44 32 24 41 24 23 24 24 22 15 14 14
63 36 11 7 47 43 41 29 28 43 25 34 14 14 14 12 11 13 13 14 16 18 19 18 14 14 17 19 20 22 26 39 42 44 50 28 39 30 22 41 48 62 65 62 52
75 28 10 8 44 45 23 42 49 50 20 20 21 18 16 15 18 17 19 26 30 31 29 24 20 17 20 28 26 28 42 56 64 68 46 46 50 46 80 76 82 80 72 71 54
52 14 9 29 36 39 35 70 66 32 26 19 19 18 24 24 27 28 24 31 36 33 35 40 39 30 25 27 32 35 46 66 77 58 57 43 56 41 56 58 76 78 76 81 66
23 12 17 46 42 56 61 72 43 30 23 21 23 24 32 32 30 31 35 35 47 48 44 48 44 28 25 25 28 35 43 38 70 58 70 55 49 49 58 64 76 80 82 86 87
16 14 28 45 38 48 76 62 31 23 21 23 31 30 44 35 35 31 37 46 50 46 46 38 49 30 29 28 27 40 39 60 78 87 73 59 74 96 76 76 81 88 94 89 90
19 48 45 50 29 76 91 50 30 25 24 34 36 41 40 38 34 34 45 51 46 48 46 57 55 43 37 38 52 75 76 76 71 86 73 79 82 79 72 77 84 89 92 94 92
60 91 66 30 91 86 59 33 25 30 29 33 34 35 36 46 41 47 46 44 44 49 54 52 68 81 56 41 44 49 71 94 97 88 92 96 71 74 77 88 82 87 90 94 78
66 71 70 86 93 74 39 37 33 29 30 29 34 32 39 47 50 47 54 45 42 45 50 54 72 93 54 48 51 51 48 53 88 97 91 93 64 71 82 81 92 90 96 97 87
38 92 74 89 76 55 56 45 42 29 30 29 46 43 47 50 50 58 56 46 39 46 50 63 75 72 78 64 69 84 69 57 59 85 70 68 60 84 88 90 96 95 96 100 100
73 77 61 89 74 58 47 47 50 46 34 40 50 52 55 61 62 62 52 56 49 48 62 67 90 80 70 66 66 69 75 83 79 72 86 70 93 90 90 85 96 97 99 97 100
83 78 67 65 50 53 56 52 49 46 53 53 56 59 60 65 70 71 57 61 62 57 61 78 96 89 92 73 70 69 74 81 84 80 81 75 78 77 76 88 93 90 93 91 90
74 61 40 66 56 56 60 57 50 50 45 36 53 63 59 60 48 42 44 45 53 60 75 97 98 89 83 65 68 86 84 82 84 94 95 88 94 80 76 86 94 94 88 84 83

GFSSW_850_rhum_138.txt.gz
RH
60 57 52 44 33 22 19 16 10 7 7 10 11 12 12 13 15 16 16 20 20 20 15 18 15 14 15 18 34 41 59 64 44 42 34 26 27 24 22 21 20 19 18 17 16
69 65 57 46 32 22 18 11 7 8 9 10 12 13 12 11 11 15 16 18 18 20 21 11 7 17 16 14 25 36 60 54 44 36 33 28 26 23 22 22 20 18 17 16 18
75 72 65 51 30 20 14 9 8 9 10 11 12 10 8 6 8 22 13 12 10 10 13 15 10 26 26 16 22 32 47 40 32 29 28 26 21 20 22 26 19 18 16 15 17
74 76 69 55 40 20 12 9 9 10 10 11 10 6 2 2 13 18 15 18 17 15 11 12 22 27 31 28 23 23 24 24 20 19 20 22 18 20 21 21 17 17 16 16 15
74 78 74 60 42 22 11 9 9 9 9 7 6 2 2 3 2 14 18 19 20 19 18 18 17 18 26 23 20 28 26 19 16 14 17 19 24 23 21 18 17 17 17 16 15
78 79 77 64 43 21 12 9 8 9 8 4 2 3 5 5 4 21 21 22 21 21 21 20 19 20 18 16 18 18 17 17 15 16 15 20 20 20 19 18 18 17 16 16 15
83 81 80 63 38 18 11 10 9 9 6 3 5 7 8 2 14 20 19 20 20 20 18 18 17 18 21 24 21 21 22 20 17 17 21 20 26 28 18 18 19 17 17 16 16
92 88 86 61 32 15 11 9 8 7 4 3 21 28 16 22 22 23 22 17 15 16 16 16 17 16 16 21 25 26 22 27 21 18 14 18 23 19 15 16 14 12 12 12 12
100 94 85 54 26 15 11 9 7 4 6 10 29 48 22 29 21 16 16 11 9 11 13 17 18 16 23 31 34 26 30 24 22 18 20 23 29 21 14 15 15 14 13 12 12
100 99 85 46 18 13 10 8 6 8 13 22 26 35 18 21 15 15 9 9 9 17 16 17 18 30 34 37 39 35 34 28 29 23 21 23 22 18 16 16 16 15 14 13 12
100 98 83 38 16 11 8 7 22 28 37 24 37 32 24 15 14 12 9 9 7 6 10 14 28 30 25 28 30 34 33 33 30 24 22 24 21 16 15 17 19 16 15 14 12
100 100 74 26 17 9 8 14 20 23 26 12 26 43 28 19 16 8 9 8 8 11 11 14 12 16 12 11 13 16 29 28 26 23 21 24 21 16 16 19 17 16 15 14 14
100 99 75 37 14 7 11 24 22 12 27 12 18 34 22 20 11 8 8 8 9 11 12 15 12 14 14 16 18 15 20 30 37 27 24 25 25 20 18 17 14 14 15 18 19
100 98 80 36 14 14 27 24 19 6 34 22 38 22 19 15 10 10 8 8 13 14 16 17 14 16 16 20 23 23 27 34 43 45 46 25 37 18 17 22 32 51 69 69 60
100 99 85 33 29 32 32 30 17 28 14 27 26 21 19 10 12 14 12 12 16 17 17 18 18 18 26 24 24 29 28 28 38 49 43 28 41 21 26 78 79 73 78 77 60
100 100 84 56 32 35 37 41 23 23 19 34 16 14 14 12 13 14 16 16 17 20 20 18 16 20 19 21 24 25 25 35 45 52 59 49 52 58 86 87 83 74 81 80 80
100 98 83 34 26 41 42 17 30 33 20 21 22 18 19 20 22 20 33 39 35 28 32 27 26 22 23 27 28 30 36 43 47 64 43 36 43 56 69 69 83 80 82 84 87
100 81 42 15 42 49 25 63 32 25 29 20 19 23 28 26 29 29 28 37 43 34 38 39 35 29 25 27 33 35 45 56 63 56 52 35 45 30 60 56 66 74 80 78 81
96 81 19 29 55 48 54 56 37 41 23 22 25 30 33 31 29 33 43 47 52 50 38 45 44 29 25 26 28 35 39 39 68 54 65 45 44 40 48 41 60 68 82 87 85
94 46 18 50 60 53 74 51 39 24 22 23 27 31 42 35 33 31 48 47 51 46 45 44 48 33 30 30 31 46 46 67 78 64 76 64 56 91 60 58 72 72 84 88 84
80 61 42 63 71 60 87 74 29 27 25 31 37 41 40 36 34 35 49 51 46 46 45 54 50 46 40 39 44 66 72 77 78 84 83 74 65 83 72 84 89 83 96 95 100
55 95 67 68 84 88 90 41 27 33 30 35 35 36 38 43 45 47 48 55 43 46 49 53 70 83 57 46 42 53 74 91 99 90 94 97 80 76 86 79 81 98 100 100 99
80 90 87 62 98 95 47 39 32 32 31 31 35 34 41 48 55 52 54 47 44 40 47 54 73 90 49 46 50 55 54 56 83 98 93 96 69 71 76 81 98 100 100 100 100
62 98 86 97 91 58 56 48 43 30 32 39 46 43 49 54 56 61 53 46 44 45 47 61 72 68 71 53 64 75 70 68 78 94 73 76 66 76 86 96 99 98 100 100 100
44 87 72 95 92 64 55 49 46 47 42 44 50 50 53 66 63 62 53 51 48 59 65 67 87 79 72 68 69 71 77 80 95 81 90 82 91 89 83 94 98 98 88 100 98
71 81 70 62 60 57 55 50 49 52 52 55 62 61 57 64 68 71 56 56 55 59 59 82 92 94 87 73 80 81 76 78 84 85 85 87 94 68 68 73 86 87 80 86 96
69 60 39 70 68 57 64 57 49 56 48 42 64 69 62 61 46 41 41 44 53 58 77 92 90 88 76 69 72 87 80 79 81 96 96 92 92 73 74 87 98 94 88 90 91

GFSSW_850_rhum_141.txt.gz
RH
65 67 64 59 51 38 27 21 15 11 10 12 13 14 15 15 15 12 18 20 21 19 14 14 17 14 15 20 35 39 32 29 28 31 21 26 24 25 23 23 22 21 19 17 16
71 74 70 63 56 45 29 21 15 11 11 13 15 14 12 10 8 17 16 16 19 20 20 14 8 15 17 16 31 34 38 31 32 29 26 27 28 25 23 22 21 20 17 16 15
74 74 75 72 59 45 30 19 13 11 12 13 14 12 8 5 7 20 13 12 10 11 13 15 12 19 24 16 24 36 27 33 32 32 31 28 23 19 18 18 19 18 18 17 16
73 74 74 75 69 52 32 18 13 11 12 13 12 9 4 3 12 17 16 17 17 16 12 12 19 26 30 26 25 21 25 28 22 20 19 18 19 19 19 18 18 18 18 17 16
75 75 76 78 76 58 34 20 14 12 11 11 9 5 3 3 2 14 17 19 19 19 18 18 17 18 22 22 18 22 23 20 18 16 16 17 19 19 18 18 18 18 18 17 17
83 79 78 80 80 68 39 20 16 12 11 10 6 4 6 8 3 20 20 22 21 21 21 21 19 20 21 18 17 18 18 20 19 17 17 17 16 19 18 18 21 20 19 17 16
92 89 84 83 83 71 44 21 17 14 12 9 4 10 16 4 7 20 20 20 20 20 19 18 17 20 21 22 22 23 24 20 18 18 18 22 18 23 21 16 16 14 13 13 12
90 98 96 90 84 65 42 21 14 13 14 7 4 20 21 13 12 20 20 20 16 16 16 16 17 17 17 21 22 22 22 22 17 16 16 18 18 16 16 16 15 14 15 14 13
94 100 100 95 79 57 24 17 12 11 10 6 7 26 23 25 23 17 17 14 10 12 16 17 18 19 23 24 24 23 24 21 21 17 18 18 21 16 16 14 14 14 14 13 13
95 100 100 99 85 52 21 11 9 11 15 14 16 21 12 24 16 16 9 9 12 17 16 18 20 23 27 27 26 29 22 23 23 18 17 19 18 17 15 14 14 14 15 14 13
100 100 100 100 84 40 19 10 18 24 25 10 26 16 28 17 14 12 10 9 7 7 11 14 23 26 16 20 24 21 24 22 19 18 23 21 20 17 14 15 15 16 17 20 26
100 100 98 99 68 25 14 12 14 21 20 9 25 22 24 27 16 8 9 8 9 11 12 10 14 15 13 13 14 14 18 20 22 23 24 19 19 14 15 15 19 38 53 59 55
100 100 96 98 43 18 9 15 14 14 20 10 10 26 22 20 12 8 8 8 10 12 14 14 13 15 14 22 20 19 25 27 27 27 25 23 9 14 14 39 45 45 53 55 61
100 100 98 98 82 26 28 22 20 11 20 17 33 25 29 17 11 11 9 9 14 16 16 16 16 16 21 22 22 22 25 22 20 19 19 19 14 10 32 43 43 45 52 56 56
98 99 99 95 46 30 34 31 30 31 32 29 28 22 18 10 12 15 13 11 18 19 15 18 19 22 23 23 24 28 24 18 18 21 30 22 26 14 49 52 49 52 57 63 70
98 100 98 98 51 40 42 42 27 25 20 33 19 15 16 13 16 17 17 16 18 22 20 21 18 21 21 22 26 22 21 21 40 41 28 40 33 26 48 60 52 55 62 71 76
100 100 99 93 63 71 61 46 39 25 20 23 22 18 21 22 24 26 35 38 29 24 28 26 27 23 24 22 26 26 27 16 21 34 23 31 25 26 30 37 46 56 61 75 81
100 100 98 89 52 56 60 69 35 18 31 20 22 26 27 26 30 29 29 37 38 29 34 30 31 26 24 26 26 29 27 29 35 35 27 26 24 16 32 34 44 56 64 74 82
100 100 96 73 52 71 53 43 32 34 24 22 22 28 33 29 30 35 41 47 46 43 30 36 34 28 27 27 25 32 33 37 48 45 45 30 27 20 33 40 60 62 94 96 100
99 96 48 54 65 66 64 28 32 27 22 23 26 30 35 33 30 35 46 45 44 43 42 42 31 32 32 28 39 37 42 54 61 62 49 33 37 40 56 73 67 80 98 100 99
100 83 72 86 76 66 70 47 35 25 24 28 36 38 36 34 32 36 48 50 42 43 44 45 39 36 38 36 35 51 57 67 74 67 58 66 42 69 83 74 76 97 100 100 100
90 97 78 84 82 78 65 56 29 31 32 32 37 36 36 36 41 43 49 51 46 42 43 49 52 49 41 39 39 47 58 75 76 78 77 76 50 69 71 84 97 98 100 100 100
99 99 100 97 95 94 67 39 33 34 35 31 36 36 43 45 50 52 54 46 38 43 47 55 62 51 47 42 50 52 56 60 72 88 75 79 45 44 63 69 98 99 99 99 98
92 98 100 100 88 69 60 47 40 32 38 40 45 44 49 51 53 58 53 52 46 45 54 56 57 49 35 38 50 58 58 58 70 80 59 60 56 62 71 71 91 87 93 91 98
92 90 76 94 90 70 50 47 45 42 44 46 45 46 50 60 56 57 52 49 53 66 68 60 71 69 62 60 61 63 65 67 75 69 83 54 72 81 70 66 97 90 84 82 82
76 77 68 61 59 80 60 48 42 49 52 52 52 52 52 59 61 66 52 50 53 60 60 77 79 89 79 61 68 76 69 63 68 76 76 69 71 82 63 69 88 84 85 88 87
72 56 50 60 74 67 63 55 49 56 52 47 63 68 57 54 47 43 39 47 55 57 82 85 79 77 67 60 65 76 70 62 63 87 89 81 80 66 66 69 97 92 90 91 95

GFSSW_850_rhum_144.txt.gz
RH
63 66 69 66 62 56 46 36 28 21 18 16 17 18 19 17 14 13 21 20 21 19 15 18 18 20 19 21 25 23 17 17 15 17 14 16 18 17 20 19 17 18 18 18 18
66 70 72 70 67 62 54 42 31 22 18 18 18 18 16 13 7 18 17 18 21 20 18 15 15 15 14 16 21 18 18 16 14 15 16 16 17 18 18 17 15 15 16 16 16
68 72 73 71 72 68 59 48 36 25 19 19 19 18 15 11 11 20 13 11 11 12 14 16 18 16 15 15 17 18 20 15 18 18 18 18 16 14 14 14 14 14 15 16 17
70 71 73 72 74 74 66 53 34 25 21 18 19 17 13 7 14 21 14 16 16 15 13 19 19 16 15 15 15 16 15 16 15 15 16 14 14 14 14 14 16 17 17 18 19
74 74 75 75 76 77 74 58 39 26 20 18 17 15 9 11 6 14 15 18 19 19 19 18 15 15 16 17 18 18 15 16 17 15 15 14 14 14 14 14 16 19 20 21 20
84 78 81 81 80 80 77 63 42 27 20 17 17 12 7 12 4 6 16 19 21 22 19 19 17 16 15 14 14 15 14 14 14 13 13 13 13 14 13 17 15 15 16 16 15
99 93 90 89 87 83 79 60 46 29 18 15 16 7 9 15 4 15 20 21 20 20 18 18 19 19 19 17 19 17 18 13 12 14 13 14 11 13 15 14 13 13 12 13 14
99 100 97 92 90 83 76 50 35 26 16 13 10 7 20 10 5 15 22 25 20 17 18 18 19 17 18 20 18 15 13 12 12 11 13 13 11 12 13 13 12 12 11 11 13
100 99 96 98 93 82 77 52 31 20 15 12 18 35 18 20 25 21 21 18 18 16 19 18 19 18 19 16 14 13 10 13 13 10 10 11 12 9 11 12 11 10 9 11 14
99 100 99 100 98 92 76 47 27 18 17 20 20 35 13 23 20 17 12 10 17 19 18 19 18 15 15 14 12 15 16 13 14 10 13 13 12 10 10 9 9 10 13 20 27
100 100 100 100 98 92 63 32 28 42 31 24 20 16 28 26 15 15 10 10 12 15 15 15 15 15 14 13 14 14 14 12 9 10 14 12 9 7 8 8 12 20 24 27 29
99 100 99 100 100 91 52 18 24 26 23 22 25 24 21 26 15 10 10 10 10 9 10 10 11 12 10 10 10 9 11 10 10 10 13 10 11 8 10 23 26 24 23 24 26
100 99 97 93 96 90 31 16 15 13 17 12 19 23 24 27 13 10 10 10 9 10 9 10 12 11 11 12 11 13 16 14 15 11 8 11 5 10 19 22 21 24 27 30 33
100 100 99 100 100 91 41 16 16 11 25 20 21 19 25 18 11 12 11 10 11 12 10 11 12 12 12 14 15 12 17 17 14 12 9 9 9 6 17 20 21 27 30 34 43
99 100 99 100 88 61 57 43 22 25 83 20 20 24 21 12 12 15 13 11 11 13 12 14 14 15 15 17 16 17 16 15 13 13 12 10 15 13 24 27 22 27 34 40 47
100 100 100 100 96 72 58 43 27 59 81 27 18 18 14 12 14 18 17 16 16 14 15 16 17 15 17 19 18 17 16 13 12 16 14 21 20 9 17 18 27 34 44 60 86
95 98 93 99 88 55 40 29 71 84 23 24 20 16 14 14 20 16 15 17 14 18 21 19 19 17 18 16 18 14 13 9 10 17 14 22 18 12 12 23 37 49 76 97 100
100 100 98 100 86 46 43 61 86 46 22 18 16 17 18 16 19 22 19 20 23 17 16 16 24 19 18 16 16 19 17 15 21 12 15 14 17 11 15 33 40 65 96 92 100
100 100 100 100 84 74 54 80 59 27 18 19 17 20 21 20 18 21 20 19 22 20 17 19 20 20 20 19 16 23 21 25 30 28 31 15 15 13 23 36 39 76 92 97 97
100 100 99 89 79 66 65 75 38 20 16 17 23 18 22 20 21 21 26 26 29 27 28 26 21 22 24 21 26 21 26 40 39 58 36 20 25 25 43 56 47 88 98 99 100
100 97 96 81 84 89 87 64 24 21 18 17 21 25 20 22 18 21 25 32 26 30 26 22 20 26 23 21 23 37 38 37 42 39 37 34 27 51 58 62 78 86 91 94 98
98 97 87 100 97 86 62 40 26 22 26 24 23 24 24 23 23 26 34 29 29 28 28 27 24 21 21 27 26 26 37 53 56 57 52 63 37 47 47 51 78 91 88 87 91
98 98 100 100 94 80 54 36 25 25 23 24 27 25 27 26 32 31 37 37 32 29 30 32 28 30 36 37 35 37 38 42 56 66 57 61 33 37 43 49 64 84 76 75 73
95 97 99 100 85 58 63 55 33 32 27 26 28 31 34 36 33 42 44 42 38 30 44 34 26 24 20 29 32 44 38 36 43 56 39 36 33 34 57 62 68 78 73 68 71
99 95 78 94 95 58 55 53 50 52 39 36 39 27 29 40 38 40 42 46 42 46 41 38 42 34 33 33 36 38 36 37 44 41 52 38 41 46 61 71 71 74 67 67 69
95 97 89 68 64 58 56 44 52 35 35 37 37 31 32 37 37 44 39 37 41 53 50 49 62 63 59 44 46 49 43 44 43 42 42 43 45 61 46 50 71 64 71 71 72
98 90 75 77 66 56 53 38 30 36 48 32 40 42 33 36 34 32 30 34 38 45 55 58 52 55 44 44 44 54 48 45 44 58 74 67 57 48 52 52 81 79 76 76 78

GFSSW_850_rhum_147.txt.gz
RH
58 62 66 68 65 62 57 52 45 37 30 25 26 28 26 24 18 17 21 20 23 19 15 22 17 18 19 17 20 18 16 14 12 11 11 13 14 14 15 16 14 14 15 15 15
59 64 68 70 68 67 62 57 51 43 34 28 27 28 28 23 16 19 22 17 20 19 25 17 14 14 14 14 16 17 15 13 10 12 13 13 14 14 14 13 12 12 13 14 14
62 65 68 72 70 68 67 62 57 48 36 31 29 28 25 22 26 17 16 12 12 15 20 17 15 15 14 12 13 14 17 12 12 14 14 13 12 11 11 11 11 12 14 15 16
66 66 69 71 72 72 72 68 62 54 42 36 31 28 25 18 19 24 14 14 14 14 17 16 16 15 14 14 12 15 13 13 12 12 13 12 12 11 11 11 12 12 14 16 17
77 72 71 72 74 73 74 74 67 56 46 37 31 26 26 22 14 13 16 17 19 21 17 16 16 14 14 12 13 15 13 12 13 12 12 11 11 10 10 10 14 14 15 16 16
94 90 84 76 82 77 77 79 70 56 43 33 28 24 33 21 10 16 19 21 19 18 16 16 15 14 13 12 12 11 12 11 10 10 10 11 10 10 10 14 13 12 13 12 14
100 100 92 86 88 86 80 75 67 56 38 28 21 16 37 27 12 16 21 20 16 17 16 16 15 15 15 13 13 13 13 10 9 10 9 10 8 9 12 12 11 10 10 10 10
100 99 100 97 90 88 84 78 67 52 36 22 16 25 41 20 14 17 20 22 20 18 17 16 15 14 14 12 13 12 11 11 10 9 9 9 9 10 10 9 9 8 8 8 10
96 99 99 99 96 98 91 81 70 49 32 21 30 50 32 24 17 18 19 16 16 15 16 16 16 14 14 14 12 10 12 10 10 8 8 9 10 6 7 8 8 7 8 13 18
97 98 100 98 97 99 95 84 62 44 38 36 44 43 33 20 18 14 16 16 14 15 16 16 16 14 12 11 14 14 13 12 11 7 8 9 8 6 5 5 6 8 15 18 20
100 98 95 100 98 99 95 72 48 54 47 37 22 17 19 20 20 15 12 11 13 15 14 14 14 14 13 12 11 10 9 8 6 6 9 8 7 5 7 10 15 16 17 20 22
100 100 98 98 99 100 95 41 36 41 34 30 25 21 29 24 14 12 10 10 10 12 11 11 11 11 9 8 8 7 8 8 7 6 7 7 6 5 11 17 17 19 21 22 26
100 100 100 100 97 98 86 43 46 24 30 31 22 24 22 21 14 11 10 10 10 11 9 10 10 8 7 8 9 8 9 11 10 8 7 6 6 11 14 16 17 19 23 26 35
100 100 100 98 100 91 87 61 27 15 53 30 16 16 20 18 14 10 10 10 9 10 8 9 8 9 8 9 10 10 12 13 11 10 8 6 8 7 13 14 14 18 28 49 58
100 99 100 98 94 88 59 65 15 53 98 24 18 18 16 15 12 10 10 10 11 10 10 11 11 11 10 9 12 9 14 11 10 11 11 9 8 9 14 19 16 33 50 53 67
99 97 100 100 97 77 57 22 44 84 92 26 17 17 15 12 12 12 11 13 10 10 11 12 11 11 11 13 13 12 14 11 12 12 17 12 13 8 13 19 28 42 54 62 73
98 99 100 97 93 85 50 55 89 98 33 27 19 16 15 13 13 12 14 13 13 17 18 13 12 12 13 14 14 13 14 13 13 15 17 15 16 10 13 26 49 51 59 65 68
98 100 100 99 86 84 48 83 96 37 35 18 17 16 17 12 14 12 13 14 11 11 12 17 21 14 13 13 13 12 14 16 18 15 14 13 14 12 13 28 54 57 52 63 64
100 100 99 99 96 61 62 98 71 41 28 20 17 20 17 13 14 16 15 14 13 12 12 13 14 14 14 14 12 18 18 19 24 19 25 13 9 9 12 34 36 64 75 84 78
100 100 100 100 70 61 82 80 53 34 22 17 24 20 22 18 19 18 16 13 14 15 16 15 21 16 18 15 17 14 18 30 33 52 30 15 14 16 36 44 43 50 59 71 67
100 99 99 81 73 78 97 68 47 23 17 19 23 23 20 21 19 20 19 20 16 21 18 15 16 20 17 19 15 27 25 23 24 27 31 27 26 37 42 42 50 50 58 60 62
99 100 100 99 98 95 80 53 36 22 18 19 21 21 22 19 20 19 19 21 19 20 21 17 18 20 21 14 16 16 27 33 50 38 38 41 31 26 37 45 47 54 58 56 58
98 97 100 100 98 96 55 51 30 24 19 21 25 24 20 23 24 19 21 25 21 22 20 24 20 21 22 24 23 23 23 30 42 55 41 51 29 40 64 52 47 55 54 56 55
95 98 99 100 99 96 66 56 34 22 21 19 20 21 24 23 23 23 32 32 26 22 29 25 22 21 19 26 25 30 24 24 30 42 32 28 25 22 42 44 53 50 55 54 54
94 98 66 91 95 92 74 57 38 34 23 22 25 24 25 31 32 34 36 37 31 43 27 26 34 22 18 21 22 23 26 24 27 27 34 26 25 31 44 45 59 50 53 55 54
97 92 73 49 59 74 92 71 58 30 34 31 30 28 27 36 40 43 37 42 35 34 29 28 48 43 37 23 21 24 22 22 23 24 25 26 30 42 39 40 46 50 58 59 59
100 91 68 62 61 83 81 56 46 34 38 32 36 44 50 41 33 28 30 28 27 37 41 43 42 42 38 28 30 38 30 27 29 34 52 50 39 38 41 44 52 59 62 63 58

GFSSW_850_rhum_150.txt.gz
RH
53 56 61 65 67 66 61 58 55 51 45 38 35 35 35 35 29 22 24 21 22 18 17 21 18 16 17 18 17 17 19 18 14 11 13 12 12 12 13 14 13 13 13 14 14
54 56 61 65 69 68 66 62 58 55 51 43 37 37 36 32 28 28 20 20 16 17 22 18 15 14 14 14 13 15 19 16 10 11 13 12 12 12 12 11 11 11 12 14 14
57 59 62 65 69 69 67 65 63 60 56 48 41 37 36 30 29 24 19 16 14 17 19 17 16 14 14 13 12 13 17 14 12 12 12 12 11 11 10 11 10 11 12 13 15
63 64 64 66 68 69 70 66 65 65 59 54 47 42 37 28 27 21 17 15 15 14 19 15 16 15 15 14 13 14 12 12 11 11 12 12 12 11 11 10 11 12 14 15 16
74 73 74 72 71 71 74 73 68 65 62 56 49 44 38 37 24 18 12 13 16 22 18 15 15 14 14 12 12 13 12 13 12 12 11 10 10 10 9 10 13 12 13 13 14
88 87 88 89 86 77 78 79 77 70 62 55 45 39 31 37 13 16 16 20 18 18 16 15 14 14 14 12 12 11 11 10 10 9 9 10 10 9 9 12 12 12 11 11 11
99 99 99 94 93 86 84 80 78 69 59 51 38 25 34 38 19 13 17 17 16 15 15 14 15 14 14 14 13 12 14 10 9 9 9 9 9 9 10 11 10 9 8 8 9
100 100 99 98 98 92 90 86 81 74 62 48 31 19 43 31 21 12 16 20 18 16 16 15 15 14 13 13 12 12 11 14 9 8 9 8 10 9 9 8 8 8 7 11 17
100 98 98 99 97 95 89 89 81 73 61 44 34 55 42 30 23 17 15 17 18 15 14 14 14 14 13 15 15 12 15 12 11 8 8 8 10 7 6 6 7 6 11 16 19
94 100 100 100 94 92 90 92 83 71 51 53 51 42 39 27 19 16 17 16 15 14 14 15 14 16 14 13 17 15 14 12 12 8 7 8 9 6 4 5 6 13 16 19 21
100 100 100 100 99 100 97 92 60 66 52 44 36 31 17 19 20 16 13 14 12 14 16 15 17 18 13 12 10 9 9 9 8 6 7 8 7 6 5 14 15 17 19 21 28
100 99 100 100 100 100 99 88 43 41 41 40 36 32 25 20 17 15 12 11 11 16 14 14 18 12 10 9 9 9 8 8 8 6 7 8 7 5 8 15 17 19 22 44 49
100 100 100 100 100 100 98 88 49 55 42 47 40 33 24 24 23 16 11 10 10 13 12 14 11 9 8 9 9 9 10 10 10 9 7 7 8 7 12 15 16 21 41 45 52
99 100 100 100 100 99 93 88 75 32 88 60 25 22 26 24 20 17 11 10 11 13 11 11 8 9 9 9 8 11 10 10 11 10 10 7 10 9 15 16 17 41 44 49 57
99 100 99 100 99 100 85 85 81 66 100 37 20 18 21 20 16 11 10 10 13 12 10 12 11 11 11 9 9 11 12 13 12 10 11 10 11 8 14 17 38 45 43 50 58
100 100 100 100 98 81 67 76 68 96 96 33 18 18 18 19 13 11 10 10 10 11 11 12 10 10 10 11 12 11 12 10 11 13 20 15 15 11 13 18 39 45 47 50 54
100 100 100 100 99 86 44 44 96 100 32 36 22 19 19 19 16 12 13 13 15 17 17 13 13 10 11 12 10 14 17 22 18 21 22 13 15 12 27 40 43 41 47 50 55
99 98 97 100 98 93 58 90 100 50 36 21 21 18 22 16 15 14 14 16 13 13 14 19 19 11 11 12 12 15 14 22 20 20 23 12 16 22 37 46 54 54 53 64 62
100 100 100 100 99 66 76 100 77 48 29 28 21 22 22 17 14 16 16 16 12 11 16 15 16 12 12 11 12 12 17 17 24 21 24 14 11 14 35 39 44 47 50 58 56
100 100 100 100 100 82 96 96 59 33 28 27 31 21 24 20 17 17 17 13 13 11 12 16 23 15 14 14 12 14 13 29 25 50 32 18 16 31 38 40 37 42 48 51 53
100 99 100 100 100 99 98 89 56 39 31 26 26 23 20 20 17 20 18 16 12 15 14 17 19 22 16 20 15 23 22 19 18 28 34 32 29 29 36 39 45 44 48 49 52
99 100 98 100 96 98 96 56 46 36 29 23 20 20 23 22 23 21 22 18 15 18 22 17 19 21 19 13 12 14 20 29 54 46 37 42 37 39 45 42 41 45 46 48 49
100 98 100 100 99 93 62 57 45 38 31 25 25 22 23 25 28 23 21 19 17 20 21 20 22 27 18 17 18 23 17 19 41 50 59 51 29 43 51 50 44 47 45 48 48
98 98 99 99 100 97 73 71 57 39 30 21 24 23 25 27 26 30 26 26 20 21 23 25 20 22 25 19 22 32 21 18 32 50 36 35 27 52 56 43 50 49 44 47 49
99 96 83 94 96 89 78 94 58 39 30 22 26 26 29 34 29 27 30 32 27 31 24 26 32 23 19 17 17 21 24 19 24 26 36 26 22 38 41 38 37 40 48 49 51
98 98 80 57 68 78 80 92 80 37 27 29 27 23 26 31 33 36 34 37 36 31 33 30 42 43 46 19 16 21 16 19 20 19 18 18 23 36 34 35 39 47 50 52 51
99 92 71 71 75 80 88 66 67 38 30 24 34 37 35 28 27 26 31 35 30 39 47 40 40 43 45 25 24 30 22 19 19 22 37 45 31 32 36 37 44 52 55 53 52